Tracking 28908 objects as of 21-May-2024
HD Live streaming from Space Station
objects crossing your sky now

THOR ABLESTAR DEB

Track THOR ABLESTAR DEB now!
10-day predictions


NORAD ID: 408
Int'l Code: 1961-015EH
Perigee: 929.7 km
Apogee: 1,040.2 km
Inclination: 66.8 °
Period: 104.6 minutes
Semi major axis: 7355 km
RCS: 0.1296 m2 (medium)
Launch date: June 29, 1961
Source: United States (US)
Launch site: AIR FORCE EASTERN TEST RANGE (AFETR)

Note: This is SATELLITE DEBRIS
Your satellite tracking list
Your tracking list is empty




NASA's NSSDC Master Catalog

Two Line Element Set (TLE):
1 00408U 61015EH  24141.31164256  .00001271  00000-0  13543-2 0  9994
2 00408  66.7846 117.2444 0075154 276.8396 194.2980 13.76082707201374
Source of the keplerian elements: AFSPC